| time (UTC) | temp F | wind direction | speed knots | gust knots | rain 1hr in | rain 24hr in | rain mn in | humidity % | barometer mb |
| 20260831114247 | 43 | 132 | 1.7 | 3.5 | 0.00 | 0.00 | 0.00 | 73 | 1019.3 |
| 20260831113742 | 42 | 132 | 0.0 | 1.7 | 0.00 | 0.00 | 0.00 | 73 | 1019.5 |
| 20260831113237 | 42 | 103 | 0.9 | 2.6 | 0.00 | 0.00 | 0.00 | 73 | 1019.3 |
| 20260831112736 | 42 | 114 | 0.9 | 2.6 | 0.00 | 0.00 | 0.00 | 73 | 1019.5 |
| 20260831112231 | 43 | 120 | 0.0 | 1.7 | 0.00 | 0.00 | 0.00 | 72 | 1019.5 |
| 20260831111727 | 43 | 117 | 1.7 | 3.5 | 0.00 | 0.00 | 0.00 | 71 | 1019.2 |
| 20260831111223 | 44 | 108 | 2.6 | 4.3 | 0.00 | 0.00 | 0.00 | 69 | 1019.3 |
| 20260831110719 | 44 | 125 | 3.5 | 5.2 | 0.00 | 0.00 | 0.00 | 70 | 1019.5 |
| 20260831110214 | 43 | 100 | 3.5 | 4.3 | 0.00 | 0.00 | 0.00 | 71 | 1019.3 |
| 20260831105712 | 44 | 103 | 4.3 | 5.2 | 0.00 | 0.00 | 0.00 | 70 | 1019.3 |
| 20260831105208 | 44 | 107 | 2.6 | 3.5 | 0.00 | 0.00 | 0.00 | 70 | 1019.2 |
| 20260831104703 | 45 | 102 | 2.6 | 3.5 | 0.00 | 0.00 | 0.00 | 68 | 1019.3 |
| 20260831104200 | 45 | 90 | 3.5 | 3.5 | 0.00 | 0.00 | 0.00 | 67 | 1019.3 |
| 20260831103659 | 46 | 120 | 2.6 | 4.3 | 0.00 | 0.00 | 0.00 | 66 | 1019.3 |
| 20260831103155 | 45 | 113 | 3.5 | 4.3 | 0.00 | 0.00 | 0.00 | 67 | 1019.1 |
| 20260831102654 | 45 | 122 | 3.5 | 4.3 | 0.00 | 0.00 | 0.00 | 68 | 1019.2 |
| 20260831102149 | 45 | 115 | 3.5 | 4.3 | 0.00 | 0.00 | 0.00 | 67 | 1019.1 |
| 20260831101645 | 45 | 118 | 2.6 | 3.5 | 0.00 | 0.00 | 0.00 | 68 | 1019.2 |
| 20260831101141 | 44 | 67 | 3.5 | 5.2 | 0.00 | 0.00 | 0.00 | 69 | 1019.2 |
| 20260831100637 | 44 | 119 | 2.6 | 4.3 | 0.00 | 0.00 | 0.00 | 69 | 1019.0 |
| 20260831100133 | 44 | 80 | 1.7 | 4.3 | 0.00 | 0.00 | 0.00 | 69 | 1019.1 |
| 20260831095630 | 44 | 112 | 2.6 | 3.5 | 0.00 | 0.00 | 0.00 | 70 | 1019.1 |
| 20260831095126 | 44 | 103 | 2.6 | 2.6 | 0.00 | 0.00 | 0.00 | 70 | 1019.0 |
| 20260831094621 | 44 | 112 | 2.6 | 2.6 | 0.00 | 0.00 | 0.00 | 70 | 1018.9 |
| 20260831094117 | 45 | 105 | 0.9 | 0.9 | 0.00 | 0.00 | 0.00 | 68 | 1018.9 |
| 20260831093613 | 45 | 103 | 1.7 | 2.6 | 0.00 | 0.00 | 0.00 | 69 | 1018.8 |
| 20260831093108 | 45 | 98 | 2.6 | 2.6 | 0.00 | 0.00 | 0.00 | 69 | 1019.0 |
| 20260831092604 | 46 | 126 | 0.0 | 1.7 | 0.00 | 0.00 | 0.00 | 67 | 1019.0 |
| 20260831092100 | 45 | 139 | 1.7 | 1.7 | 0.00 | 0.00 | 0.00 | 67 | 1019.1 |
| 20260831091559 | 46 | 94 | 1.7 | 2.6 | 0.00 | 0.00 | 0.00 | 66 | 1019.0 |
| 20260831091055 | 48 | 255 | 0.0 | 1.7 | 0.00 | 0.00 | 0.00 | 64 | 1018.9 |
| 20260831090550 | 48 | 63 | 1.7 | 3.5 | 0.00 | 0.00 | 0.00 | 61 | 1018.9 |
| 20260831090046 | 47 | 90 | 1.7 | 3.5 | 0.00 | 0.00 | 0.00 | 63 | 1019.0 |
| 20260831085541 | 47 | 124 | 2.6 | 4.3 | 0.00 | 0.00 | 0.00 | 64 | 1019.0 |
| 20260831085036 | 46 | 108 | 4.3 | 4.3 | 0.00 | 0.00 | 0.00 | 66 | 1018.9 |
| 20260831084532 | 46 | 110 | 3.5 | 4.3 | 0.00 | 0.00 | 0.00 | 67 | 1019.0 |
| 20260831084028 | 46 | 106 | 2.6 | 2.6 | 0.00 | 0.00 | 0.00 | 69 | 1019.0 |
| 20260831083524 | 46 | 120 | 2.6 | 2.6 | 0.00 | 0.00 | 0.00 | 67 | 1019.0 |
| 20260831083018 | 46 | 131 | 2.6 | 2.6 | 0.00 | 0.00 | 0.00 | 66 | 1019.0 |
| 20260831082518 | 46 | 109 | 2.6 | 3.5 | 0.00 | 0.00 | 0.00 | 66 | 1018.8 |
| 20260831082013 | 47 | 96 | 2.6 | 3.5 | 0.00 | 0.00 | 0.00 | 66 | 1018.6 |
| 20260831081509 | 46 | 97 | 2.6 | 2.6 | 0.00 | 0.00 | 0.00 | 66 | 1018.6 |
| 20260831081004 | 47 | 126 | 0.0 | 1.7 | 0.00 | 0.00 | 0.00 | 66 | 1018.6 |
| 20260831080458 | 47 | 127 | 1.7 | 2.6 | 0.00 | 0.00 | 0.00 | 65 | 1018.6 |
| 20260831075954 | 48 | 96 | 2.6 | 4.3 | 0.00 | 0.00 | 0.00 | 64 | 1018.7 |
| 20260831075449 | 48 | 95 | 3.5 | 4.3 | 0.00 | 0.00 | 0.00 | 63 | 1018.7 |
| 20260831074945 | 48 | 84 | 0.9 | 2.6 | 0.00 | 0.00 | 0.00 | 62 | 1018.6 |
| 20260831074444 | 50 | 120 | 0.0 | 1.7 | 0.00 | 0.00 | 0.00 | 60 | 1018.7 |
| 20260831073939 | 50 | 117 | 0.9 | 2.6 | 0.00 | 0.00 | 0.00 | 59 | 1018.5 |
| 20260831073438 | 50 | 109 | 0.0 | 3.5 | 0.00 | 0.00 | 0.00 | 59 | 1018.5 |
| 20260831072933 | 49 | 98 | 2.6 | 3.5 | 0.00 | 0.00 | 0.00 | 60 | 1018.6 |
| 20260831072429 | 48 | 112 | 3.5 | 3.5 | 0.00 | 0.00 | 0.00 | 62 | 1018.5 |
| 20260831071925 | 49 | 96 | 3.5 | 3.5 | 0.00 | 0.00 | 0.00 | 61 | 1018.5 |
| 20260831071424 | 49 | 99 | 1.7 | 3.5 | 0.00 | 0.00 | 0.00 | 60 | 1018.5 |
| 20260831070924 | 50 | 129 | 1.7 | 6.1 | 0.00 | 0.00 | 0.00 | 59 | 1018.6 |
| 20260831070423 | 50 | 101 | 4.3 | 7.0 | 0.00 | 0.00 | 0.00 | 57 | 1018.7 |
| 20260831065923 | 51 | 61 | 2.6 | 7.0 | 0.00 | 0.00 | 0.00 | 57 | 1018.6 |
| 20260831065420 | 51 | 105 | 4.3 | 7.8 | 0.00 | 0.00 | 0.00 | 56 | 1018.8 |
| 20260831064916 | 51 | 90 | 3.5 | 8.7 | 0.00 | 0.00 | 0.00 | 57 | 1018.7 |
| 20260831064411 | 51 | 101 | 5.2 | 7.8 | 0.00 | 0.00 | 0.00 | 56 | 1018.6 |
| 20260831063907 | 51 | 84 | 4.3 | 8.7 | 0.00 | 0.00 | 0.00 | 56 | 1018.6 |
| 20260831063402 | 51 | 117 | 3.5 | 5.2 | 0.00 | 0.00 | 0.00 | 57 | 1018.6 |
| 20260831062856 | 51 | 105 | 6.1 | 7.8 | 0.00 | 0.00 | 0.00 | 57 | 1018.7 |
| 20260831062351 | 50 | 105 | 4.3 | 6.1 | 0.00 | 0.00 | 0.00 | 58 | 1018.8 |
| 20260831061850 | 50 | 93 | 2.6 | 4.3 | 0.00 | 0.00 | 0.00 | 59 | 1018.7 |
| 20260831061349 | 51 | 115 | 2.6 | 3.5 | 0.00 | 0.00 | 0.00 | 58 | 1018.8 |
| 20260831060845 | 52 | 109 | 2.6 | 5.2 | 0.00 | 0.00 | 0.00 | 56 | 1018.3 |
| 20260831060340 | 53 | 90 | 3.5 | 6.1 | 0.00 | 0.00 | 0.00 | 54 | 1018.7 |
| 20260831055839 | 52 | 92 | 6.1 | 6.1 | 0.00 | 0.00 | 0.00 | 56 | 1018.6 |
| 20260831055334 | 53 | 121 | 5.2 | 7.0 | 0.00 | 0.00 | 0.00 | 54 | 1018.7 |
| 20260831054830 | 53 | 92 | 4.3 | 6.1 | 0.00 | 0.00 | 0.00 | 55 | 1018.7 |
| 20260831054325 | 52 | 104 | 4.3 | 6.1 | 0.00 | 0.00 | 0.00 | 55 | 1018.7 |
| 20260831053824 | 52 | 49 | 2.6 | 2.6 | 0.00 | 0.00 | 0.00 | 56 | 1018.7 |
| 20260831053323 | 53 | 108 | 3.5 | 5.2 | 0.00 | 0.00 | 0.00 | 55 | 1018.6 |
| 20260831052818 | 52 | 100 | 5.2 | 6.1 | 0.00 | 0.00 | 0.00 | 55 | 1018.7 |
| 20260831052317 | 52 | 97 | 3.5 | 4.3 | 0.00 | 0.00 | 0.00 | 56 | 1018.5 |
| 20260831051815 | 52 | 110 | 2.6 | 2.6 | 0.00 | 0.00 | 0.00 | 57 | 1018.5 |
| 20260831051314 | 53 | 111 | 2.6 | 3.5 | 0.00 | 0.00 | 0.00 | 56 | 1018.2 |
| 20260831050809 | 53 | 114 | 5.2 | 6.1 | 0.00 | 0.00 | 0.00 | 54 | 1018.6 |
| 20260831050307 | 52 | 119 | 3.5 | 4.3 | 0.00 | 0.00 | 0.00 | 56 | 1018.6 |
| 20260831045802 | 52 | 105 | 1.7 | 2.6 | 0.00 | 0.00 | 0.00 | 57 | 1018.6 |
| 20260831045257 | 54 | 120 | 2.6 | 3.5 | 0.00 | 0.00 | 0.00 | 53 | 1018.3 |
| 20260831044752 | 54 | 87 | 2.6 | 3.5 | 0.00 | 0.00 | 0.00 | 53 | 1018.6 |
| 20260831044246 | 54 | 90 | 4.3 | 5.2 | 0.00 | 0.00 | 0.00 | 53 | 1018.6 |
| 20260831043742 | 54 | 97 | 2.6 | 3.5 | 0.00 | 0.00 | 0.00 | 54 | 1018.3 |
| 20260831043237 | 54 | 106 | 1.7 | 2.6 | 0.00 | 0.00 | 0.00 | 52 | 1018.5 |
| 20260831042736 | 54 | 108 | 4.3 | 6.1 | 0.00 | 0.00 | 0.00 | 53 | 1018.3 |
| 20260831042231 | 55 | 90 | 0.9 | 4.3 | 0.00 | 0.00 | 0.00 | 52 | 1018.2 |
| 20260831041726 | 55 | 107 | 2.6 | 4.3 | 0.00 | 0.00 | 0.00 | 50 | 1018.3 |
| 20260831041226 | 55 | 110 | 1.7 | 4.3 | 0.00 | 0.00 | 0.00 | 51 | 1018.2 |
| 20260831040721 | 55 | 104 | 4.3 | 5.2 | 0.00 | 0.00 | 0.00 | 53 | 1018.1 |
| 20260831040220 | 55 | 113 | 1.7 | 2.6 | 0.00 | 0.00 | 0.00 | 50 | 1018.2 |
| 20260831035719 | 57 | 99 | 0.0 | 0.0 | 0.00 | 0.00 | 0.00 | 47 | 1018.2 |
| 20260831035213 | 57 | 173 | 0.9 | 1.7 | 0.00 | 0.00 | 0.00 | 49 | 1018.2 |
| 20260831034712 | 56 | 180 | 1.7 | 2.6 | 0.00 | 0.00 | 0.00 | 49 | 1018.0 |
| 20260831034208 | 56 | 127 | 1.7 | 2.6 | 0.00 | 0.00 | 0.00 | 51 | 1018.1 |
| 20260831033703 | 56 | 139 | 1.7 | 1.7 | 0.00 | 0.00 | 0.00 | 50 | 1017.9 |
| 20260831033203 | 57 | 120 | 0.0 | 1.7 | 0.00 | 0.00 | 0.00 | 48 | 1018.1 |
| 20260831032658 | 57 | 180 | 0.0 | 2.6 | 0.00 | 0.00 | 0.00 | 48 | 1017.9 |
| 20260831032153 | 57 | 109 | 1.7 | 1.7 | 0.00 | 0.00 | 0.00 | 48 | 1017.8 |
| 20260831031648 | 57 | 112 | 1.7 | 2.6 | 0.00 | 0.00 | 0.00 | 49 | 1017.8 |
| 20260831031147 | 57 | 111 | 0.0 | 1.7 | 0.00 | 0.00 | 0.00 | 48 | 1017.7 |
| 20260831030646 | 58 | 115 | 1.7 | 2.6 | 0.00 | 0.00 | 0.00 | 48 | 1017.6 |
| 20260831030145 | 59 | 135 | 0.0 | 1.7 | 0.00 | 0.00 | 0.00 | 45 | 1017.6 |
| 20260831025644 | 58 | 103 | 0.9 | 1.7 | 0.00 | 0.00 | 0.00 | 48 | 1017.2 |
| 20260831025139 | 59 | 135 | 1.7 | 2.6 | 0.00 | 0.00 | 0.00 | 46 | 1017.0 |
| 20260831024635 | 60 | 132 | 1.7 | 1.7 | 0.00 | 0.00 | 0.00 | 45 | 1017.2 |
| 20260831024133 | 61 | 139 | 1.7 | 1.7 | 0.00 | 0.00 | 0.00 | 45 | 1017.0 |
| 20260831023632 | 62 | 0 | 0.9 | 3.5 | 0.00 | 0.00 | 0.00 | 41 | 1016.7 |
| 20260831023132 | 62 | 297 | 2.6 | 6.1 | 0.00 | 0.00 | 0.00 | 41 | 1016.8 |
| 20260831022627 | 62 | 288 | 1.7 | 2.6 | 0.00 | 0.00 | 0.00 | 41 | 1016.8 |
| 20260831022122 | 62 | 273 | 3.5 | 4.3 | 0.00 | 0.00 | 0.00 | 40 | 1017.1 |
| 20260831021620 | 63 | 77 | 0.9 | 3.5 | 0.00 | 0.00 | 0.00 | 41 | 1017.0 |
| 20260831021116 | 63 | 314 | 3.5 | 4.3 | 0.00 | 0.00 | 0.00 | 40 | 1016.9 |
| 20260831020612 | 64 | 277 | 0.9 | 7.0 | 0.00 | 0.00 | 0.00 | 39 | 1016.6 |
| 20260831020107 | 64 | 326 | 1.7 | 6.1 | 0.00 | 0.00 | 0.00 | 38 | 1016.9 |
| 20260831015603 | 65 | 263 | 6.1 | 6.1 | 0.00 | 0.00 | 0.00 | 38 | 1016.8 |
| 20260831015057 | 65 | 268 | 4.3 | 7.8 | 0.00 | 0.00 | 0.00 | 37 | 1016.6 |
| 20260831014552 | 66 | 287 | 2.6 | 7.0 | 0.00 | 0.00 | 0.00 | 37 | 1016.8 |
| 20260831014047 | 66 | 272 | 4.3 | 7.0 | 0.00 | 0.00 | 0.00 | 36 | 1016.6 |
| 20260831013543 | 66 | 307 | 6.1 | 8.7 | 0.00 | 0.00 | 0.00 | 36 | 1016.5 |
| 20260831013037 | 67 | 280 | 4.3 | 8.7 | 0.00 | 0.00 | 0.00 | 35 | 1016.6 |
| 20260831012532 | 67 | 299 | 4.3 | 7.0 | 0.00 | 0.00 | 0.00 | 36 | 1016.7 |
| 20260831012032 | 67 | 253 | 6.1 | 9.6 | 0.00 | 0.00 | 0.00 | 35 | 1016.6 |
| 20260831011527 | 68 | 291 | 2.6 | 5.2 | 0.00 | 0.00 | 0.00 | 35 | 1016.6 |
| 20260831011022 | 68 | 274 | 4.3 | 7.8 | 0.00 | 0.00 | 0.00 | 35 | 1016.8 |
| 20260831010523 | 67 | 314 | 5.2 | 11.3 | 0.00 | 0.00 | 0.00 | 35 | 1016.6 |
| 20260831010019 | 68 | 275 | 3.5 | 8.7 | 0.00 | 0.00 | 0.00 | 34 | 1016.7 |
| 20260831005520 | 68 | 309 | 4.3 | 7.0 | 0.00 | 0.00 | 0.00 | 34 | 1016.5 |
| 20260831005019 | 68 | 222 | 2.6 | 7.0 | 0.00 | 0.00 | 0.00 | 34 | 1016.5 |
| 20260831004515 | 68 | 258 | 7.0 | 8.7 | 0.00 | 0.00 | 0.00 | 34 | 1016.8 |
| 20260831004010 | 68 | 275 | 7.0 | 15.6 | 0.00 | 0.00 | 0.00 | 34 | 1016.7 |
| 20260831003506 | 69 | 307 | 3.5 | 9.6 | 0.00 | 0.00 | 0.00 | 34 | 1016.8 |
| 20260831003001 | 68 | 356 | 7.8 | 13.0 | 0.00 | 0.00 | 0.00 | 33 | 1016.6 |
| 20260831002500 | 69 | 296 | 6.1 | 12.2 | 0.00 | 0.00 | 0.00 | 33 | 1016.7 |
| 20260831001955 | 69 | 330 | 4.3 | 13.0 | 0.00 | 0.00 | 0.00 | 33 | 1016.2 |
| 20260831001450 | 69 | 319 | 3.5 | 10.4 | 0.00 | 0.00 | 0.00 | 34 | 1016.5 |
| 20260831000948 | 69 | 277 | 4.3 | 13.0 | 0.00 | 0.00 | 0.00 | 33 | 1016.5 |
| 20260831000443 | 69 | 275 | 7.8 | 13.0 | 0.00 | 0.00 | 0.00 | 32 | 1016.6 |
| 20260830235941 | 69 | 311 | 4.3 | 10.4 | 0.00 | 0.00 | 0.00 | 33 | 1016.5 |
| 20260830235436 | 69 | 286 | 3.5 | 11.3 | 0.00 | 0.00 | 0.00 | 34 | 1016.6 |
| 20260830234932 | 69 | 15 | 4.3 | 12.2 | 0.00 | 0.00 | 0.00 | 33 | 1016.6 |
| 20260830234427 | 69 | 298 | 4.3 | 10.4 | 0.00 | 0.00 | 0.00 | 32 | 1016.5 |
| 20260830233923 | 70 | 330 | 5.2 | 6.1 | 0.00 | 0.00 | 0.00 | 33 | 1016.5 |
| 20260830233418 | 70 | 270 | 6.1 | 12.2 | 0.00 | 0.00 | 0.00 | 33 | 1016.4 |
| 20260830232913 | 69 | 259 | 5.2 | 9.6 | 0.00 | 0.00 | 0.00 | 34 | 1016.5 |
| 20260830232409 | 69 | 292 | 4.3 | 9.6 | 0.00 | 0.00 | 0.00 | 33 | 1016.5 |
| 20260830231906 | 69 | 268 | 4.3 | 7.8 | 0.00 | 0.00 | 0.00 | 34 | 1016.4 |
| 20260830231401 | 68 | 298 | 6.1 | 7.0 | 0.00 | 0.00 | 0.00 | 34 | 1016.5 |
| 20260830230900 | 69 | 313 | 2.6 | 11.3 | 0.00 | 0.00 | 0.00 | 34 | 1016.4 |
| 20260830230355 | 69 | 249 | 2.6 | 7.8 | 0.00 | 0.00 | 0.00 | 34 | 1016.4 |
| 20260830225854 | 69 | 280 | 7.8 | 11.3 | 0.00 | 0.00 | 0.00 | 33 | 1016.8 |
| 20260830225350 | 68 | 315 | 7.0 | 14.8 | 0.00 | 0.00 | 0.00 | 33 | 1016.5 |
| 20260830224844 | 69 | 290 | 2.6 | 7.8 | 0.00 | 0.00 | 0.00 | 32 | 1016.6 |
| 20260830224338 | 69 | 265 | 10.4 | 17.4 | 0.00 | 0.00 | 0.00 | 33 | 1016.4 |
| 20260830223836 | 70 | 320 | 6.1 | 14.8 | 0.00 | 0.00 | 0.00 | 32 | 1016.1 |
| 20260830223332 | 70 | 287 | 3.5 | 8.7 | 0.00 | 0.00 | 0.00 | 32 | 1016.4 |
| 20260830222831 | 69 | 318 | 4.3 | 9.6 | 0.00 | 0.00 | 0.00 | 32 | 1016.6 |
| 20260830222326 | 70 | 279 | 7.8 | 11.3 | 0.00 | 0.00 | 0.00 | 31 | 1016.1 |
| 20260830221821 | 70 | 266 | 5.2 | 9.6 | 0.00 | 0.00 | 0.00 | 32 | 1016.5 |
| 20260830221318 | 70 | 336 | 5.2 | 8.7 | 0.00 | 0.00 | 0.00 | 33 | 1016.5 |
| 20260830220812 | 70 | 277 | 7.0 | 11.3 | 0.00 | 0.00 | 0.00 | 33 | 1016.8 |
| 20260830220312 | 70 | 264 | 2.6 | 8.7 | 0.00 | 0.00 | 0.00 | 35 | 1016.9 |
| 20260830215810 | 70 | 346 | 4.3 | 6.1 | 0.00 | 0.00 | 0.00 | 33 | 1016.6 |
| 20260830215306 | 69 | 299 | 4.3 | 11.3 | 0.00 | 0.00 | 0.00 | 35 | 1016.6 |
| 20260830214800 | 68 | 296 | 4.3 | 8.7 | 0.00 | 0.00 | 0.00 | 36 | 1016.6 |
| 20260830214255 | 67 | 264 | 4.3 | 11.3 | 0.00 | 0.00 | 0.00 | 36 | 1016.7 |
| 20260830213754 | 67 | 281 | 4.3 | 7.8 | 0.00 | 0.00 | 0.00 | 36 | 1016.6 |
| 20260830213249 | 65 | 295 | 6.1 | 7.8 | 0.00 | 0.00 | 0.00 | 36 | 1016.8 |
| 20260830212745 | 66 | 350 | 2.6 | 9.6 | 0.00 | 0.00 | 0.00 | 35 | 1016.6 |
| 20260830212241 | 66 | 243 | 4.3 | 9.6 | 0.00 | 0.00 | 0.00 | 36 | 1016.7 |
| 20260830211740 | 67 | 3 | 2.6 | 9.6 | 0.00 | 0.00 | 0.00 | 35 | 1016.8 |
| 20260830211239 | 68 | 266 | 4.3 | 9.6 | 0.00 | 0.00 | 0.00 | 36 | 1016.7 |
| 20260830210736 | 68 | 255 | 1.7 | 13.9 | 0.00 | 0.00 | 0.00 | 35 | 1016.8 |
| 20260830210234 | 69 | 246 | 3.5 | 8.7 | 0.00 | 0.00 | 0.00 | 36 | 1016.7 |
| 20260830205732 | 68 | 41 | 1.7 | 7.0 | 0.00 | 0.00 | 0.00 | 34 | 1017.0 |
| 20260830205227 | 68 | 289 | 4.3 | 8.7 | 0.00 | 0.00 | 0.00 | 35 | 1016.6 |
| 20260830204722 | 69 | 297 | 4.3 | 8.7 | 0.00 | 0.00 | 0.00 | 35 | 1016.9 |
| 20260830204221 | 68 | 255 | 1.7 | 11.3 | 0.00 | 0.00 | 0.00 | 37 | 1017.0 |
| 20260830203717 | 67 | 263 | 8.7 | 25.2 | 0.00 | 0.00 | 0.00 | 34 | 1016.8 |
| 20260830203213 | 66 | 272 | 5.2 | 13.0 | 0.00 | 0.00 | 0.00 | 35 | 1017.0 |
| 20260830202712 | 65 | 270 | 5.2 | 14.8 | 0.00 | 0.00 | 0.00 | 35 | 1017.0 |
| 20260830202208 | 65 | 277 | 2.6 | 7.8 | 0.00 | 0.00 | 0.00 | 35 | 1016.8 |
| 20260830201707 | 65 | 228 | 1.7 | 8.7 | 0.00 | 0.00 | 0.00 | 38 | 1016.9 |
| 20260830201202 | 65 | 264 | 7.0 | 13.0 | 0.00 | 0.00 | 0.00 | 35 | 1016.8 |
| 20260830200658 | 65 | 280 | 5.2 | 14.8 | 0.00 | 0.00 | 0.00 | 35 | 1016.8 |
| 20260830200157 | 65 | 188 | 1.7 | 14.8 | 0.00 | 0.00 | 0.00 | 35 | 1016.9 |
| 20260830195652 | 66 | 285 | 4.3 | 8.7 | 0.00 | 0.00 | 0.00 | 36 | 1016.9 |
| 20260830195150 | 66 | 289 | 4.3 | 12.2 | 0.00 | 0.00 | 0.00 | 35 | 1016.9 |
| 20260830194650 | 65 | 261 | 4.3 | 13.0 | 0.00 | 0.00 | 0.00 | 36 | 1016.9 |
| 20260830194150 | 65 | 348 | 1.7 | 8.7 | 0.00 | 0.00 | 0.00 | 36 | 1016.9 |
| 20260830193644 | 64 | 239 | 4.3 | 10.4 | 0.00 | 0.00 | 0.00 | 37 | 1016.8 |
| 20260830193139 | 66 | 281 | 6.1 | 11.3 | 0.00 | 0.00 | 0.00 | 35 | 1017.0 |
| 20260830192634 | 65 | 6 | 3.5 | 11.3 | 0.00 | 0.00 | 0.00 | 36 | 1017.0 |
| 20260830192129 | 65 | 253 | 5.2 | 6.1 | 0.00 | 0.00 | 0.00 | 37 | 1017.1 |
| 20260830191624 | 64 | 286 | 1.7 | 12.2 | 0.00 | 0.00 | 0.00 | 38 | 1017.1 |
| 20260830191119 | 63 | 189 | 4.3 | 13.0 | 0.00 | 0.00 | 0.00 | 38 | 1017.2 |
| 20260830190610 | 63 | 278 | 6.1 | 9.6 | 0.00 | 0.00 | 0.00 | 39 | 1017.0 |
| 20260830190110 | 63 | 292 | 7.0 | 9.6 | 0.00 | 0.00 | 0.00 | 39 | 1017.2 |
| 20260830185603 | 63 | 248 | 2.6 | 13.0 | 0.00 | 0.00 | 0.00 | 39 | 1017.1 |
| 20260830185059 | 64 | 249 | 2.6 | 4.3 | 0.00 | 0.00 | 0.00 | 41 | 1017.4 |
| 20260830184557 | 64 | 248 | 1.7 | 7.8 | 0.00 | 0.00 | 0.00 | 41 | 1017.5 |
| 20260830184052 | 63 | 297 | 3.5 | 6.1 | 0.00 | 0.00 | 0.00 | 40 | 1017.2 |
| 20260830183547 | 63 | 231 | 2.6 | 9.6 | 0.00 | 0.00 | 0.00 | 41 | 1017.6 |
| 20260830183043 | 62 | 234 | 6.1 | 7.0 | 0.00 | 0.00 | 0.00 | 44 | 1017.7 |
| 20260830182538 | 62 | 319 | 3.5 | 7.0 | 0.00 | 0.00 | 0.00 | 45 | 1017.8 |
| 20260830182034 | 62 | 239 | 6.1 | 8.7 | 0.00 | 0.00 | 0.00 | 43 | 1017.7 |
| 20260830181531 | 61 | 164 | 4.3 | 11.3 | 0.00 | 0.00 | 0.00 | 44 | 1017.8 |
| 20260830181030 | 61 | 162 | 2.6 | 13.0 | 0.00 | 0.00 | 0.00 | 44 | 1018.0 |
| 20260830180529 | 61 | 191 | 7.8 | 11.3 | 0.00 | 0.00 | 0.00 | 45 | 1017.7 |
| 20260830180028 | 61 | 286 | 7.8 | 10.4 | 0.00 | 0.00 | 0.00 | 46 | 1017.9 |
| 20260830175528 | 61 | 268 | 6.1 | 12.2 | 0.00 | 0.00 | 0.00 | 45 | 1017.9 |
| 20260830175023 | 61 | 215 | 7.0 | 13.9 | 0.00 | 0.00 | 0.00 | 46 | 1017.8 |
| 20260830174519 | 61 | 245 | 6.1 | 12.2 | 0.00 | 0.00 | 0.00 | 45 | 1017.9 |
| 20260830174014 | 61 | 217 | 3.5 | 10.4 | 0.00 | 0.00 | 0.00 | 47 | 1018.1 |
| 20260830173509 | 60 | 247 | 4.3 | 9.6 | 0.00 | 0.00 | 0.00 | 47 | 1017.9 |
| 20260830173010 | 60 | 278 | 0.9 | 7.0 | 0.00 | 0.00 | 0.00 | 47 | 1017.9 |
| 20260830172506 | 62 | 231 | 5.2 | 6.1 | 0.00 | 0.00 | 0.00 | 46 | 1018.0 |
| 20260830172002 | 61 | 342 | 6.1 | 7.0 | 0.00 | 0.00 | 0.00 | 47 | 1018.1 |
| 20260830171457 | 61 | 285 | 5.2 | 9.6 | 0.00 | 0.00 | 0.00 | 48 | 1018.0 |
| 20260830170957 | 59 | 280 | 6.1 | 7.8 | 0.00 | 0.00 | 0.00 | 50 | 1018.1 |
| 20260830170452 | 59 | 220 | 0.0 | 5.2 | 0.00 | 0.00 | 0.00 | 50 | 1018.0 |
| 20260830165950 | 59 | 284 | 4.3 | 6.1 | 0.00 | 0.00 | 0.00 | 50 | 1018.1 |
| 20260830165447 | 58 | 267 | 3.5 | 8.7 | 0.00 | 0.00 | 0.00 | 50 | 1018.0 |
| 20260830164942 | 59 | 296 | 2.6 | 8.7 | 0.00 | 0.00 | 0.00 | 49 | 1018.3 |
| 20260830164438 | 60 | 260 | 3.5 | 6.1 | 0.00 | 0.00 | 0.00 | 50 | 1018.1 |
| 20260830163934 | 60 | 270 | 5.2 | 6.1 | 0.00 | 0.00 | 0.00 | 48 | 1018.0 |
| 20260830163430 | 60 | 198 | 2.6 | 4.3 | 0.00 | 0.00 | 0.00 | 50 | 1018.0 |
| 20260830162929 | 59 | 270 | 0.0 | 5.2 | 0.00 | 0.00 | 0.00 | 51 | 1018.0 |
| 20260830162426 | 58 | 14 | 3.5 | 5.2 | 0.00 | 0.00 | 0.00 | 52 | 1017.9 |
| 20260830161925 | 58 | 289 | 1.7 | 5.2 | 0.00 | 0.00 | 0.00 | 51 | 1018.3 |
| 20260830161425 | 59 | 309 | 2.6 | 5.2 | 0.00 | 0.00 | 0.00 | 50 | 1018.1 |
| 20260830160920 | 58 | 235 | 1.7 | 4.3 | 0.00 | 0.00 | 0.00 | 53 | 1018.2 |
| 20260830160417 | 57 | 289 | 1.7 | 4.3 | 0.00 | 0.00 | 0.00 | 55 | 1018.2 |
| 20260830155911 | 56 | 266 | 0.0 | 2.6 | 0.00 | 0.00 | 0.00 | 56 | 1018.2 |
| 20260830155408 | 56 | 308 | 1.7 | 3.5 | 0.00 | 0.00 | 0.00 | 57 | 1018.2 |
| 20260830154903 | 56 | 255 | 0.0 | 3.5 | 0.00 | 0.00 | 0.00 | 55 | 1018.3 |
| 20260830154358 | 55 | 70 | 1.7 | 2.6 | 0.00 | 0.00 | 0.00 | 57 | 1018.3 |
| 20260830153855 | 54 | 93 | 2.6 | 3.5 | 0.00 | 0.00 | 0.00 | 58 | 1018.3 |
| 20260830153350 | 54 | 23 | 2.6 | 2.6 | 0.00 | 0.00 | 0.00 | 59 | 1018.5 |
| 20260830152849 | 54 | 32 | 0.0 | 3.5 | 0.00 | 0.00 | 0.00 | 58 | 1018.6 |
| 20260830152344 | 55 | 28 | 3.5 | 3.5 | 0.00 | 0.00 | 0.00 | 56 | 1018.6 |
| 20260830151838 | 56 | 19 | 1.7 | 3.5 | 0.00 | 0.00 | 0.00 | 55 | 1018.2 |
| 20260830151337 | 54 | 56 | 1.7 | 4.3 | 0.00 | 0.00 | 0.00 | 58 | 1018.5 |
| 20260830150833 | 54 | 93 | 2.6 | 5.2 | 0.00 | 0.00 | 0.00 | 58 | 1018.2 |
| 20260830150332 | 55 | 99 | 3.5 | 5.2 | 0.00 | 0.00 | 0.00 | 59 | 1018.5 |
| 20260830145827 | 55 | 75 | 2.6 | 2.6 | 0.00 | 0.00 | 0.00 | 58 | 1018.6 |
| 20260830145322 | 53 | 90 | 4.3 | 4.3 | 0.00 | 0.00 | 0.00 | 60 | 1018.3 |
| 20260830144817 | 52 | 66 | 0.9 | 3.5 | 0.00 | 0.00 | 0.00 | 62 | 1018.7 |
| 20260830144313 | 52 | 107 | 2.6 | 3.5 | 0.00 | 0.00 | 0.00 | 64 | 1018.3 |
| 20260830143809 | 51 | 354 | 3.5 | 3.5 | 0.00 | 0.00 | 0.00 | 64 | 1018.1 |
| 20260830143308 | 52 | 64 | 2.6 | 3.5 | 0.00 | 0.00 | 0.00 | 64 | 1018.0 |
| 20260830142803 | 54 | 173 | 0.0 | 0.9 | 0.00 | 0.00 | 0.00 | 60 | 1018.0 |
| 20260830142258 | 54 | 273 | 2.6 | 2.6 | 0.00 | 0.00 | 0.00 | 61 | 1018.2 |
| 20260830141753 | 52 | 78 | 1.7 | 3.5 | 0.00 | 0.00 | 0.00 | 63 | 1018.2 |
| 20260830141248 | 53 | 96 | 2.6 | 2.6 | 0.00 | 0.00 | 0.00 | 63 | 1018.1 |
| 20260830140743 | 51 | 98 | 0.9 | 1.7 | 0.00 | 0.00 | 0.00 | 64 | 1018.1 |
| 20260830140238 | 50 | 346 | 0.0 | 0.0 | 0.00 | 0.00 | 0.00 | 66 | 1018.0 |
| 20260830135732 | 49 | 35 | 0.9 | 1.7 | 0.00 | 0.00 | 0.00 | 70 | 1018.1 |
| 20260830135228 | 47 | 106 | 0.0 | 0.9 | 0.00 | 0.00 | 0.00 | 72 | 1018.0 |
| 20260830134723 | 46 | 123 | 2.6 | 2.6 | 0.00 | 0.00 | 0.00 | 72 | 1018.0 |
| 20260830134218 | 46 | 99 | 1.7 | 4.3 | 0.00 | 0.00 | 0.00 | 71 | 1018.0 |
| 20260830133714 | 46 | 90 | 2.6 | 3.5 | 0.00 | 0.00 | 0.00 | 72 | 1017.8 |
| 20260830133209 | 46 | 83 | 2.6 | 3.5 | 0.00 | 0.00 | 0.00 | 73 | 1017.9 |
| 20260830132659 | 46 | 106 | 2.6 | 3.5 | 0.00 | 0.00 | 0.00 | 72 | 1017.8 |
| 20260830132155 | 46 | 78 | 1.7 | 2.6 | 0.00 | 0.00 | 0.00 | 71 | 1017.6 |
| 20260830131654 | 46 | 66 | 0.9 | 1.7 | 0.00 | 0.00 | 0.00 | 71 | 1017.8 |
| 20260830131148 | 46 | 126 | 0.0 | 2.6 | 0.00 | 0.00 | 0.00 | 70 | 1017.7 |
| 20260830130648 | 46 | 194 | 0.0 | 1.7 | 0.00 | 0.00 | 0.00 | 70 | 1017.7 |
| 20260830130143 | 47 | 69 | 0.9 | 2.6 | 0.00 | 0.00 | 0.00 | 70 | 1017.6 |
| 20260830125643 | 47 | 105 | 1.7 | 2.6 | 0.00 | 0.00 | 0.00 | 70 | 1017.4 |
| 20260830125138 | 48 | 90 | 1.7 | 2.6 | 0.00 | 0.00 | 0.00 | 67 | 1017.4 |
| 20260830124636 | 46 | 112 | 2.6 | 2.6 | 0.00 | 0.00 | 0.00 | 71 | 1017.4 |
| 20260830124131 | 47 | 98 | 0.9 | 3.5 | 0.00 | 0.00 | 0.00 | 69 | 1017.5 |
| 20260830123628 | 47 | 131 | 0.9 | 2.6 | 0.00 | 0.00 | 0.00 | 68 | 1017.2 |
| 20260830123123 | 48 | 96 | 2.6 | 4.3 | 0.00 | 0.00 | 0.00 | 66 | 1017.4 |
| 20260830122621 | 47 | 121 | 3.5 | 4.3 | 0.00 | 0.00 | 0.00 | 66 | 1017.6 |
| 20260830122116 | 47 | 111 | 0.9 | 2.6 | 0.00 | 0.00 | 0.00 | 67 | 1017.6 |
| 20260830121612 | 48 | 106 | 3.5 | 5.2 | 0.00 | 0.00 | 0.00 | 66 | 1017.6 |
| 20260830121111 | 48 | 75 | 2.6 | 3.5 | 0.00 | 0.00 | 0.00 | 66 | 1017.5 |
| 20260830120606 | 49 | 90 | 1.7 | 3.5 | 0.00 | 0.00 | 0.00 | 62 | 1017.4 |
| 20260830115559 | 51 | 105 | 1.7 | 1.7 | 0.00 | 0.00 | 0.00 | 60 | 1017.6 |
| 20260830115054 | 51 | 270 | 3.5 | 4.3 | 0.00 | 0.00 | 0.00 | 59 | 1017.4 |
| 20260830114551 | 51 | 248 | 0.0 | 6.1 | 0.00 | 0.00 | 0.00 | 58 | 1017.6 |